{"data":{"norad_id":45377,"intl_designator":"2020-019T","name":"STARLINK-1305","alt_names":[],"object_type":"PAYLOAD","status":"ACTIVE","operator":null,"country":"US","launch_date":"2020-03-18","launch_site_code":"AFETR","launch_vehicle":null,"mission":null,"orbit_class":"UNKNOWN","rcs_meters":null,"size_class":null,"mass_kg":null,"dimensions":null,"purposes":["comms"],"wikipedia_slug":null,"has_3d_model":false,"image_url":null,"decayed_at":null,"tle_current":{"epoch":"2026-05-25T02:31:44.616864Z","epoch_age_seconds":59820,"freshness":"FRESH","line1":"1 45377U 20019T   26145.10537751  .00053593  00000+0  44756-3 0  9998","line2":"2 45377  53.0378 119.5656 0001630 130.0832 230.0327 15.69533030342151","mean_motion":15.6953303,"eccentricity":0.000163,"inclination_deg":53.0378,"raan_deg":119.5656,"arg_perigee_deg":130.0832,"mean_anomaly_deg":230.0327,"bstar":0.00044756,"rev_number":34215,"period_min":91.747033829546,"perigee_km":359.13486405687,"apogee_km":361.33157274807,"semimajor_km":6738.3702184025,"source":"CELESTRAK","updated_at":"2026-05-25T13:38:16.414539Z"}}}